TAR1568 DTTA-DTTJ

Flight info

Callsign TAR1568
Flight time 0h 40m
Altitude 23000
Route GIBLI2A GIBLI A411 MON UA411 ELJEM A411 SFX UA411 JBA
Aircraft A343/H-SDE2E3FGHIJ4J5M1RWXY/LB1D1

Departure

Time 2026-05-07 19:57
Airport Tunis Carthage International Airport (DTTA)

Arrival

Time 2026-05-07 20:38
Airport Djerba Zarzis International Airport (DTTJ)
Time Latitude Longitude Altitude Speed Heading
2026-05-07 19:42 36.84020 10.21691 34 ft 0 kts 282°
2026-05-07 19:50 36.84018 10.21706 34 ft 3 kts 282°
2026-05-07 19:50 36.84014 10.21730 34 ft 3 kts 282°
2026-05-07 19:50 36.84009 10.21755 34 ft 3 kts 282°
2026-05-07 19:51 36.84005 10.21780 34 ft 3 kts 282°
2026-05-07 19:51 36.84001 10.21804 34 ft 3 kts 276°
2026-05-07 19:51 36.84000 10.21828 33 ft 3 kts 258°
2026-05-07 19:51 36.84007 10.21851 34 ft 3 kts 233°
2026-05-07 19:52 36.84020 10.21868 34 ft 3 kts 207°
2026-05-07 19:52 36.84033 10.21875 34 ft 1 kts 193°
2026-05-07 19:52 36.84034 10.21875 34 ft 0 kts 193°
2026-05-07 19:54 36.84032 10.21874 34 ft 1 kts 193°
2026-05-07 19:55 36.83985 10.21860 34 ft 12 kts 193°
2026-05-07 19:55 36.83948 10.21854 34 ft 0 kts 186°
2026-05-07 19:55 36.83947 10.21854 34 ft 1 kts 185°
2026-05-07 19:55 36.83914 10.21884 34 ft 12 kts 123°
2026-05-07 19:56 36.83881 10.22023 34 ft 21 kts 100°
2026-05-07 19:56 36.83871 10.22204 35 ft 21 kts 78°
2026-05-07 19:56 36.83953 10.22353 35 ft 21 kts 37°
2026-05-07 19:56 36.84082 10.22421 36 ft 21 kts 13°
2026-05-07 19:57 36.84368 10.22498 34 ft 75 kts 12°
2026-05-07 19:57 36.85100 10.22698 39 ft 137 kts 12°
2026-05-07 19:57 36.86153 10.22970 393 ft 161 kts 11°
2026-05-07 19:57 36.87268 10.23226 1151 ft 164 kts 12°
2026-05-07 19:58 36.88455 10.23556 1680 ft 188 kts 13°
2026-05-07 19:58 36.89786 10.23939 2262 ft 203 kts 12°
2026-05-07 19:58 36.91205 10.24335 2987 ft 213 kts 11°
2026-05-07 19:58 36.92646 10.24731 3974 ft 216 kts 10°
2026-05-07 19:59 36.94135 10.25100 4951 ft 221 kts
2026-05-07 19:59 36.95666 10.24916 5829 ft 224 kts 335°
2026-05-07 19:59 36.96910 10.23781 6677 ft 225 kts 303°
2026-05-07 19:59 36.97481 10.21997 7590 ft 222 kts 272°
2026-05-07 20:00 36.97251 10.20130 8555 ft 218 kts 243°
2026-05-07 20:00 36.96313 10.18664 9546 ft 218 kts 216°
2026-05-07 20:00 36.94895 10.17971 10470 ft 226 kts 190°
2026-05-07 20:00 36.93301 10.18083 11398 ft 233 kts 178°
2026-05-07 20:01 36.91716 10.18506 12271 ft 242 kts 170°
2026-05-07 20:01 36.90150 10.19425 13121 ft 254 kts 160°
2026-05-07 20:01 36.88610 10.20544 13982 ft 258 kts 160°
2026-05-07 20:01 36.87065 10.21682 14843 ft 259 kts 160°
2026-05-07 20:02 36.85928 10.22507 15472 ft 260 kts 161°
2026-05-07 20:02 36.84782 10.23231 16050 ft 258 kts 168°
2026-05-07 20:02 36.84308 10.23486 16236 ft 260 kts 169°
2026-05-07 20:03 36.82822 10.24214 16604 ft 274 kts 170°
2026-05-07 20:03 36.80977 10.25074 16963 ft 292 kts 170°
2026-05-07 20:03 36.79066 10.25967 17316 ft 309 kts 169°
2026-05-07 20:03 36.77000 10.26940 17650 ft 326 kts 169°
2026-05-07 20:04 36.74821 10.27972 18011 ft 342 kts 168°
2026-05-07 20:04 36.72543 10.29053 18378 ft 358 kts 168°
2026-05-07 20:04 36.70172 10.30180 18774 ft 372 kts 168°
2026-05-07 20:04 36.67727 10.31343 19351 ft 380 kts 168°
2026-05-07 20:05 36.65242 10.32527 19970 ft 385 kts 168°
2026-05-07 20:05 36.62754 10.33710 20584 ft 390 kts 168°
2026-05-07 20:05 36.60200 10.34920 21220 ft 395 kts 167°
2026-05-07 20:05 36.57623 10.36142 21811 ft 399 kts 168°
2026-05-07 20:06 36.55007 10.37381 22416 ft 404 kts 168°
2026-05-07 20:06 36.52366 10.38627 22806 ft 408 kts 168°
2026-05-07 20:06 36.49696 10.39885 22927 ft 417 kts 167°
2026-05-07 20:06 36.46937 10.41178 22918 ft 428 kts 167°
2026-05-07 20:07 36.44145 10.42495 22917 ft 430 kts 167°
2026-05-07 20:07 36.41346 10.43818 22917 ft 430 kts 167°
2026-05-07 20:07 36.38588 10.45119 22924 ft 430 kts 167°
2026-05-07 20:07 36.35797 10.46444 22915 ft 430 kts 167°
2026-05-07 20:08 36.33006 10.47787 22916 ft 431 kts 167°
2026-05-07 20:08 36.30215 10.49137 22916 ft 431 kts 167°
2026-05-07 20:08 36.27424 10.50457 22917 ft 428 kts 169°
2026-05-07 20:08 36.24562 10.51368 22916 ft 419 kts 178°
2026-05-07 20:09 36.21694 10.51921 22917 ft 417 kts 180°
2026-05-07 20:09 36.18816 10.52339 22916 ft 415 kts 182°
2026-05-07 20:09 36.15941 10.52683 22916 ft 414 kts 182°
2026-05-07 20:10 36.10243 10.53292 22916 ft 414 kts 183°
2026-05-07 20:10 36.07371 10.53598 22915 ft 414 kts 182°
2026-05-07 20:10 36.04504 10.53911 22916 ft 414 kts 182°
2026-05-07 20:10 36.01621 10.54232 22914 ft 415 kts 182°
2026-05-07 20:11 35.98746 10.54559 22905 ft 415 kts 182°
2026-05-07 20:11 35.95878 10.54888 22901 ft 414 kts 182°
2026-05-07 20:11 35.93007 10.55217 22905 ft 414 kts 182°
2026-05-07 20:11 35.90137 10.55546 22902 ft 414 kts 182°
2026-05-07 20:12 35.87307 10.55870 22899 ft 414 kts 182°
2026-05-07 20:12 35.84441 10.56198 22907 ft 414 kts 182°
2026-05-07 20:12 35.81567 10.56525 22898 ft 415 kts 182°
2026-05-07 20:12 35.78701 10.56852 22912 ft 414 kts 182°
2026-05-07 20:13 35.75823 10.57180 22914 ft 414 kts 182°
2026-05-07 20:13 35.72946 10.57507 22917 ft 415 kts 182°
2026-05-07 20:13 35.70070 10.57834 22917 ft 415 kts 182°
2026-05-07 20:13 35.67196 10.58160 22914 ft 416 kts 182°
2026-05-07 20:14 35.64312 10.58487 22915 ft 416 kts 182°
2026-05-07 20:14 35.61471 10.58809 22915 ft 416 kts 182°
2026-05-07 20:14 35.58595 10.59136 22916 ft 416 kts 182°
2026-05-07 20:14 35.55710 10.59463 22916 ft 416 kts 182°
2026-05-07 20:15 35.52829 10.59791 22916 ft 416 kts 182°
2026-05-07 20:15 35.49948 10.60116 22915 ft 416 kts 182°
2026-05-07 20:15 35.47062 10.60441 22916 ft 416 kts 182°
2026-05-07 20:15 35.44177 10.60767 22916 ft 417 kts 182°
2026-05-07 20:16 35.41289 10.61092 22917 ft 417 kts 182°
2026-05-07 20:16 35.38402 10.61419 22917 ft 417 kts 182°
2026-05-07 20:16 35.35514 10.61745 22917 ft 417 kts 182°
2026-05-07 20:16 35.32625 10.62071 22902 ft 418 kts 182°
2026-05-07 20:17 35.29766 10.62393 22916 ft 418 kts 182°
2026-05-07 20:17 35.26876 10.62718 22916 ft 418 kts 182°
2026-05-07 20:17 35.23980 10.63043 22916 ft 418 kts 182°
2026-05-07 20:17 35.21076 10.63369 22917 ft 418 kts 182°
2026-05-07 20:18 35.18177 10.63694 22916 ft 418 kts 182°
2026-05-07 20:18 35.15277 10.64020 22915 ft 419 kts 182°
2026-05-07 20:18 35.12379 10.64346 22917 ft 418 kts 182°
2026-05-07 20:18 35.09480 10.64667 22915 ft 418 kts 182°
2026-05-07 20:19 35.06579 10.64992 22916 ft 419 kts 182°
2026-05-07 20:19 35.03677 10.65317 22916 ft 419 kts 182°
2026-05-07 20:19 35.00811 10.65638 22795 ft 416 kts 182°
2026-05-07 20:19 34.97978 10.65964 22551 ft 403 kts 182°
2026-05-07 20:20 34.95224 10.66285 22302 ft 392 kts 183°
2026-05-07 20:20 34.92527 10.66593 22054 ft 390 kts 183°
2026-05-07 20:20 34.89865 10.66892 21784 ft 375 kts 183°
2026-05-07 20:20 34.87302 10.67183 21371 ft 368 kts 184°
2026-05-07 20:21 34.84759 10.67462 20906 ft 366 kts 184°
2026-05-07 20:21 34.82240 10.67736 20447 ft 362 kts 184°
2026-05-07 20:21 34.79741 10.68009 19995 ft 358 kts 184°
2026-05-07 20:21 34.77276 10.68280 19548 ft 354 kts 184°
2026-05-07 20:22 34.74870 10.68546 19108 ft 350 kts 184°
2026-05-07 20:22 34.72452 10.68813 18597 ft 348 kts 185°
2026-05-07 20:22 34.70041 10.69072 18051 ft 347 kts 185°
2026-05-07 20:22 34.67644 10.69287 17514 ft 345 kts 186°
2026-05-07 20:23 34.65259 10.69496 17002 ft 343 kts 185°
2026-05-07 20:23 34.62892 10.69709 16495 ft 340 kts 185°
2026-05-07 20:23 34.60534 10.69922 15993 ft 338 kts 185°
2026-05-07 20:23 34.58196 10.70134 15486 ft 336 kts 185°
2026-05-07 20:24 34.55869 10.70346 14984 ft 334 kts 184°
2026-05-07 20:24 34.53555 10.70557 14475 ft 333 kts 184°
2026-05-07 20:24 34.51279 10.70764 13983 ft 331 kts 184°
2026-05-07 20:24 34.48986 10.70975 13485 ft 330 kts 183°
2026-05-07 20:25 34.46705 10.71184 12983 ft 328 kts 182°
2026-05-07 20:25 34.44437 10.71392 12485 ft 326 kts 182°
2026-05-07 20:25 34.42186 10.71600 11988 ft 323 kts 182°
2026-05-07 20:25 34.39955 10.71807 11501 ft 321 kts 181°
2026-05-07 20:26 34.37737 10.72010 11050 ft 318 kts 181°
2026-05-07 20:26 34.35600 10.72208 10903 ft 305 kts 181°
2026-05-07 20:26 34.33522 10.72402 10772 ft 294 kts 181°
2026-05-07 20:26 34.31519 10.72590 10634 ft 284 kts 181°
2026-05-07 20:27 34.29585 10.72770 10508 ft 274 kts 181°
2026-05-07 20:27 34.27711 10.72949 10373 ft 266 kts 181°
2026-05-07 20:27 34.25874 10.73141 10095 ft 265 kts 181°
2026-05-07 20:27 34.24036 10.73335 9754 ft 264 kts 181°
2026-05-07 20:28 34.22205 10.73531 9410 ft 264 kts 181°
2026-05-07 20:28 34.20366 10.73722 9067 ft 266 kts 181°
2026-05-07 20:28 34.18527 10.73915 8717 ft 266 kts 180°
2026-05-07 20:28 34.16705 10.74108 8367 ft 266 kts 180°
2026-05-07 20:29 34.14861 10.74303 8008 ft 266 kts 180°
2026-05-07 20:29 34.13018 10.74499 7643 ft 266 kts 179°
2026-05-07 20:29 34.11178 10.74696 7285 ft 266 kts 179°
2026-05-07 20:29 34.09341 10.74863 6919 ft 264 kts 182°
2026-05-07 20:30 34.07557 10.74532 6533 ft 257 kts 203°
2026-05-07 20:30 34.06086 10.73357 6163 ft 255 kts 227°
2026-05-07 20:30 34.05199 10.71531 5795 ft 255 kts 250°
2026-05-07 20:30 34.04793 10.69448 5452 ft 254 kts 252°
2026-05-07 20:31 34.04196 10.67489 5128 ft 252 kts 244°
2026-05-07 20:31 34.03381 10.65623 4764 ft 251 kts 238°
2026-05-07 20:31 34.02408 10.63870 4389 ft 251 kts 232°
2026-05-07 20:31 34.01298 10.62244 4003 ft 252 kts 227°
2026-05-07 20:32 34.00061 10.60749 3629 ft 253 kts 222°
2026-05-07 20:32 33.98697 10.59394 3251 ft 254 kts 216°
2026-05-07 20:32 33.97249 10.58224 2855 ft 246 kts 210°
2026-05-07 20:32 33.95763 10.57253 2496 ft 242 kts 205°
2026-05-07 20:33 33.94259 10.56469 2201 ft 229 kts 199°
2026-05-07 20:33 33.92809 10.55889 2098 ft 218 kts 194°
2026-05-07 20:33 33.91336 10.55458 2096 ft 218 kts 189°
2026-05-07 20:33 33.89862 10.55676 2096 ft 215 kts 149°
2026-05-07 20:34 33.88923 10.56976 2097 ft 207 kts 106°
2026-05-07 20:34 33.88727 10.58694 2105 ft 210 kts 93°
2026-05-07 20:34 33.88555 10.60438 2102 ft 211 kts 98°
2026-05-07 20:34 33.88096 10.62114 2094 ft 214 kts 122°
2026-05-07 20:35 33.87192 10.63516 2033 ft 211 kts 118°
2026-05-07 20:35 33.86960 10.65165 1880 ft 196 kts 81°
2026-05-07 20:35 33.87183 10.66741 1573 ft 192 kts 79°
2026-05-07 20:35 33.87320 10.68310 1296 ft 183 kts 85°
2026-05-07 20:36 33.87344 10.69784 1055 ft 169 kts 88°
2026-05-07 20:36 33.87377 10.71128 836 ft 153 kts 85°
2026-05-07 20:36 33.87411 10.72348 627 ft 140 kts 86°
2026-05-07 20:36 33.87439 10.73472 450 ft 130 kts 85°
2026-05-07 20:37 33.87472 10.74536 293 ft 127 kts 86°
2026-05-07 20:37 33.87501 10.75628 149 ft 132 kts 85°
2026-05-07 20:37 33.87524 10.76739 38 ft 132 kts 87°
2026-05-07 20:37 33.87546 10.77775 29 ft 108 kts 88°
2026-05-07 20:38 33.87563 10.78440 24 ft 40 kts 88°
2026-05-07 20:38 33.87519 10.78590 25 ft 10 kts 157°
2026-05-07 20:38 33.87488 10.78596 27 ft 0 kts 175°
2026-05-07 20:39 33.87445 10.78591 25 ft 13 kts 195°
2026-05-07 20:40 33.87400 10.78499 28 ft 11 kts 265°
2026-05-07 20:40 33.87396 10.78387 31 ft 11 kts 268°
2026-05-07 20:40 33.87393 10.78283 31 ft 14 kts 269°
2026-05-07 20:40 33.87397 10.78156 31 ft 16 kts 269°
2026-05-07 20:41 33.87394 10.78012 31 ft 18 kts 268°
2026-05-07 20:41 33.87390 10.77850 31 ft 20 kts 268°
2026-05-07 20:41 33.87390 10.77831 31 ft 0 kts 268°
2026-05-07 20:41 33.87390 10.77828 31 ft 2 kts 268°
2026-05-07 20:42 33.87389 10.77767 31 ft 12 kts 269°
2026-05-07 20:42 33.87385 10.77629 30 ft 20 kts 268°
2026-05-07 20:42 33.87379 10.77394 31 ft 18 kts 269°
2026-05-07 20:42 33.87370 10.77292 31 ft 11 kts 247°
2026-05-07 20:43 33.87345 10.77273 31 ft 4 kts 199°
2026-05-07 20:43 33.87313 10.77279 31 ft 3 kts 147°
2026-05-07 20:43 33.87303 10.77300 31 ft 4 kts 125°
2026-05-07 20:43 33.87277 10.77339 31 ft 7 kts 130°
2026-05-07 20:44 33.87260 10.77363 31 ft 4 kts 131°
2026-05-07 20:44 33.87252 10.77373 30 ft 3 kts 131°
2026-05-07 20:44 33.87247 10.77380 31 ft 0 kts 132°